星链-36335(STARLINK-36335)

导读

STARLINK-36335(NORAD编号68015)是SpaceX星链(Starlink)星座中的一颗卫星,属于SpaceX打造的全球卫星互联网组网计划组成部分。 2026年初SpaceX宣布将降低4400颗星链卫星轨道高度,该卫星大概率在此计划中,将从原550公里轨道高度降至480公里,此举可在卫星故障后加速其离轨再入大气层,降低太空碰撞风险,减少空间碎片,应对近地轨道日益拥挤的安全挑战。星链星座通过批量发射低轨卫星,为全球提供宽带互联网接入服务,而STARLINK-36335是该星座万余颗卫星中的一员,支撑星链网络的全球覆盖能力。

基本信息
目录编号:
68015
目录名称:
STARLINK-36335
国际标识:
2026-040A
轨道中心:
EARTH
卫星名称:
星链-36335
卫星全名:
星链-36335(STARLINK-36335)
卫星状态:
在轨 (已飞行104 天)
发射日期:
2026-03-01 UTC
国别 :
美国 (US)
星等 :
--
轨道信息
数据来源 国际轨道数据
星历时间: 2026-06-13T04:41:05+0800
7小时前
查看轨道信息
半长轴: 6843.631km
偏心率: 0.0001747
轨道倾角: 97.284°
近地点辐角 110.592°
升交点赤经 112.544°
平近点角 249.551°
近地点: 464.298km
远地点: 466.69km
周期: 93.905分钟
每日圈数: 15.334617
详细信息
固有亮度:
5
最大亮度:
2.5
卫星平台:
Starlink V1.0
覆盖范围:
全球
运营商:
太空探索技术公司
运营商所在国:
美国
制造商(研发单位):
太空探索技术公司
制造商所在国:
美国
使用方式:
暂无
卫星简介
Starlink 计划是 SpaceX 推出的全球卫星互联网项目,通过发射低轨道卫星,为全球尤其是偏远地区提供高速、低延迟的互联网服务。自 2019 年起,Starlink 已部署数千颗卫星,旨在缩小全球数字鸿沟,推动互联网普及。该项目还为军事、航空等行业提供通信支持,带来广泛经济效益。
2D轨道图
3D轨道图
轨道高度分析图
轨道倾角分析图
轨道综合分析图
查看轨道综合分析图